AFR58NR LFLL-LFPG

Flight info

Callsign AFR58NR
Flight time 0h 48m
Altitude 30000
Route MOKIP DCT ARFOZ DCT TINIL
Aircraft A320/M-SDE3FGHIRWY/LB1

Departure

Time 2026-05-07 22:29
Airport Lyon Saint-Exupéry Airport (LFLL)

Arrival

Time 2026-05-07 23:17
Airport Charles de Gaulle International Airport (LFPG)
Time Latitude Longitude Altitude Speed Heading
2026-05-07 22:08 45.71528 5.07844 797 ft 0 kts 10°
2026-05-07 22:19 45.71521 5.07842 796 ft 4 kts 11°
2026-05-07 22:19 45.71495 5.07832 796 ft 4 kts 24°
2026-05-07 22:20 45.71476 5.07814 796 ft 4 kts 78°
2026-05-07 22:20 45.71477 5.07799 796 ft 1 kts 131°
2026-05-07 22:20 45.71479 5.07797 796 ft 0 kts 131°
2026-05-07 22:22 45.71470 5.07811 796 ft 4 kts 131°
2026-05-07 22:22 45.71453 5.07847 796 ft 6 kts 116°
2026-05-07 22:22 45.71442 5.07945 797 ft 11 kts 79°
2026-05-07 22:23 45.71455 5.08022 800 ft 6 kts 89°
2026-05-07 22:23 45.71447 5.08089 802 ft 6 kts 104°
2026-05-07 22:23 45.71434 5.08156 802 ft 12 kts 104°
2026-05-07 22:23 45.71409 5.08305 803 ft 15 kts 95°
2026-05-07 22:24 45.71415 5.08441 806 ft 11 kts 84°
2026-05-07 22:24 45.71397 5.08518 810 ft 8 kts 138°
2026-05-07 22:24 45.71335 5.08538 812 ft 11 kts 174°
2026-05-07 22:24 45.71257 5.08547 814 ft 10 kts 175°
2026-05-07 22:25 45.71195 5.08555 815 ft 7 kts 172°
2026-05-07 22:25 45.71153 5.08576 814 ft 7 kts 150°
2026-05-07 22:25 45.71120 5.08637 818 ft 9 kts 112°
2026-05-07 22:25 45.71103 5.08724 816 ft 8 kts 104°
2026-05-07 22:26 45.71090 5.08794 817 ft 7 kts 105°
2026-05-07 22:26 45.71080 5.08849 820 ft 5 kts 104°
2026-05-07 22:26 45.71076 5.08883 815 ft 2 kts 93°
2026-05-07 22:26 45.71076 5.08885 816 ft 0 kts 92°
2026-05-07 22:27 45.71076 5.08886 816 ft 1 kts 91°
2026-05-07 22:27 45.71078 5.08928 821 ft 11 kts 86°
2026-05-07 22:27 45.71100 5.09019 820 ft 7 kts 34°
2026-05-07 22:28 45.71131 5.09026 820 ft 7 kts 355°
2026-05-07 22:28 45.71446 5.08987 813 ft 79 kts 355°
2026-05-07 22:28 45.71903 5.08932 811 ft 120 kts 355°
2026-05-07 22:28 45.72934 5.08806 796 ft 171 kts 355°
2026-05-07 22:29 45.74162 5.08677 1209 ft 184 kts 355°
2026-05-07 22:29 45.75500 5.08520 1824 ft 197 kts 355°
2026-05-07 22:29 45.76894 5.08344 2445 ft 207 kts 356°
2026-05-07 22:29 45.78391 5.08157 2805 ft 230 kts 356°
2026-05-07 22:30 45.80011 5.07956 3571 ft 236 kts 356°
2026-05-07 22:30 45.81666 5.07750 4408 ft 242 kts 356°
2026-05-07 22:30 45.83421 5.07535 4926 ft 262 kts 356°
2026-05-07 22:30 45.85272 5.07307 5689 ft 270 kts 355°
2026-05-07 22:31 45.87169 5.07072 6532 ft 276 kts 354°
2026-05-07 22:31 45.89095 5.06835 7351 ft 280 kts 354°
2026-05-07 22:31 45.91052 5.06595 8195 ft 284 kts 354°
2026-05-07 22:31 45.93030 5.06352 9035 ft 288 kts 353°
2026-05-07 22:32 45.95037 5.06024 9881 ft 292 kts 351°
2026-05-07 22:32 45.97086 5.05619 10376 ft 307 kts 350°
2026-05-07 22:32 45.99284 5.05157 10643 ft 329 kts 350°
2026-05-07 22:32 46.01595 5.04669 11224 ft 338 kts 351°
2026-05-07 22:33 46.03942 5.04182 11928 ft 344 kts 351°
2026-05-07 22:33 46.06299 5.03707 12645 ft 348 kts 351°
2026-05-07 22:33 46.08712 5.03231 13387 ft 352 kts 351°
2026-05-07 22:33 46.11159 5.02749 14069 ft 356 kts 351°
2026-05-07 22:34 46.13629 5.02262 14698 ft 360 kts 351°
2026-05-07 22:34 46.16125 5.01769 15336 ft 364 kts 351°
2026-05-07 22:34 46.18648 5.01267 15969 ft 367 kts 351°
2026-05-07 22:34 46.21191 5.00761 16588 ft 371 kts 351°
2026-05-07 22:35 46.23769 5.00247 17214 ft 375 kts 351°
2026-05-07 22:35 46.26370 4.99727 17839 ft 379 kts 351°
2026-05-07 22:35 46.28998 4.99293 18462 ft 382 kts 356°
2026-05-07 22:35 46.31666 4.99513 18990 ft 387 kts
2026-05-07 22:36 46.34287 5.00511 19524 ft 391 kts 20°
2026-05-07 22:36 46.36708 5.02222 20063 ft 395 kts 31°
2026-05-07 22:36 46.39099 5.04314 20625 ft 398 kts 31°
2026-05-07 22:36 46.41452 5.06358 21167 ft 401 kts 29°
2026-05-07 22:37 46.43996 5.08052 21690 ft 403 kts 18°
2026-05-07 22:37 46.46717 5.09067 22234 ft 405 kts
2026-05-07 22:37 46.49534 5.09386 22780 ft 406 kts 358°
2026-05-07 22:37 46.52365 5.09392 23315 ft 409 kts 358°
2026-05-07 22:38 46.55221 5.09400 23791 ft 412 kts 358°
2026-05-07 22:38 46.58101 5.09410 24213 ft 415 kts 358°
2026-05-07 22:38 46.60995 5.09420 24626 ft 417 kts 358°
2026-05-07 22:38 46.63872 5.09430 25032 ft 420 kts 358°
2026-05-07 22:39 46.66801 5.09439 25427 ft 422 kts 358°
2026-05-07 22:39 46.69759 5.09451 25814 ft 425 kts 358°
2026-05-07 22:39 46.72727 5.09466 26199 ft 427 kts 358°
2026-05-07 22:39 46.75709 5.09480 26575 ft 430 kts 358°
2026-05-07 22:40 46.78705 5.09496 26941 ft 432 kts 357°
2026-05-07 22:40 46.81721 5.09510 27313 ft 434 kts 357°
2026-05-07 22:40 46.84756 5.09526 27672 ft 437 kts 357°
2026-05-07 22:40 46.87801 5.09542 28049 ft 439 kts 357°
2026-05-07 22:41 46.90864 5.09553 28406 ft 441 kts 357°
2026-05-07 22:41 46.93937 5.09564 28753 ft 443 kts 357°
2026-05-07 22:41 46.97028 5.09578 29086 ft 445 kts 357°
2026-05-07 22:41 47.00142 5.09593 29407 ft 447 kts 356°
2026-05-07 22:42 47.03225 5.09609 29721 ft 450 kts 356°
2026-05-07 22:42 47.06366 5.09625 30000 ft 452 kts 356°
2026-05-07 22:42 47.09495 5.09641 30060 ft 441 kts 356°
2026-05-07 22:42 47.12516 5.09661 30058 ft 429 kts 356°
2026-05-07 22:43 47.15479 5.09679 30057 ft 425 kts 356°
2026-05-07 22:43 47.21378 5.09697 30056 ft 423 kts 356°
2026-05-07 22:44 47.27264 5.09715 30060 ft 423 kts 356°
2026-05-07 22:44 47.33146 5.09748 30057 ft 422 kts 356°
2026-05-07 22:45 47.38976 5.09772 30058 ft 421 kts 356°
2026-05-07 22:45 47.44857 5.09798 30059 ft 421 kts 356°
2026-05-07 22:46 47.50716 5.09823 30078 ft 421 kts 356°
2026-05-07 22:46 47.56514 5.09230 30082 ft 414 kts 343°
2026-05-07 22:47 47.61750 5.05993 30078 ft 404 kts 323°
2026-05-07 22:47 47.66093 5.00826 30083 ft 406 kts 316°
2026-05-07 22:47 47.68277 4.98077 30083 ft 417 kts 316°
2026-05-07 22:48 47.70518 4.95255 30087 ft 426 kts 316°
2026-05-07 22:48 47.75072 4.89530 30081 ft 430 kts 316°
2026-05-07 22:49 47.79640 4.83764 30087 ft 430 kts 316°
2026-05-07 22:49 47.84198 4.77980 30084 ft 430 kts 316°
2026-05-07 22:50 47.88713 4.72221 30081 ft 430 kts 316°
2026-05-07 22:50 47.93257 4.66414 30097 ft 430 kts 316°
2026-05-07 22:51 47.97804 4.60596 30091 ft 430 kts 316°
2026-05-07 22:51 48.02345 4.54778 30082 ft 430 kts 316°
2026-05-07 22:52 48.06881 4.48949 30083 ft 430 kts 316°
2026-05-07 22:52 48.11409 4.43112 30076 ft 430 kts 316°
2026-05-07 22:53 48.15935 4.37259 30087 ft 429 kts 316°
2026-05-07 22:53 48.20455 4.31402 30083 ft 429 kts 316°
2026-05-07 22:54 48.24968 4.25534 30076 ft 429 kts 316°
2026-05-07 22:54 48.28962 4.18954 30072 ft 426 kts 307°
2026-05-07 22:55 48.32633 4.12280 29932 ft 403 kts 307°
2026-05-07 22:55 48.34383 4.09082 29710 ft 392 kts 306°
2026-05-07 22:55 48.36099 4.05944 29288 ft 386 kts 306°
2026-05-07 22:55 48.37795 4.02839 28825 ft 382 kts 307°
2026-05-07 22:56 48.39473 3.99762 28345 ft 379 kts 307°
2026-05-07 22:56 48.41133 3.96715 27865 ft 376 kts 307°
2026-05-07 22:56 48.42787 3.93679 27397 ft 373 kts 307°
2026-05-07 22:56 48.44422 3.90674 26943 ft 370 kts 307°
2026-05-07 22:57 48.46047 3.87685 26473 ft 367 kts 307°
2026-05-07 22:57 48.47661 3.84711 26024 ft 365 kts 307°
2026-05-07 22:57 48.49261 3.81762 25579 ft 362 kts 307°
2026-05-07 22:57 48.50848 3.78829 25134 ft 360 kts 307°
2026-05-07 22:58 48.52406 3.75947 24703 ft 357 kts 307°
2026-05-07 22:58 48.53951 3.73028 24261 ft 354 kts 302°
2026-05-07 22:58 48.55297 3.69932 23827 ft 351 kts 301°
2026-05-07 22:58 48.56625 3.66851 23348 ft 349 kts 301°
2026-05-07 22:59 48.57941 3.63793 22864 ft 347 kts 301°
2026-05-07 22:59 48.59248 3.60746 22395 ft 344 kts 301°
2026-05-07 22:59 48.60548 3.57718 21964 ft 341 kts 301°
2026-05-07 22:59 48.61835 3.54720 21526 ft 339 kts 301°
2026-05-07 23:00 48.63111 3.51744 21099 ft 337 kts 301°
2026-05-07 23:00 48.64381 3.48781 20670 ft 335 kts 301°
2026-05-07 23:00 48.65641 3.45834 20254 ft 333 kts 301°
2026-05-07 23:00 48.66895 3.42899 19846 ft 331 kts 301°
2026-05-07 23:01 48.68142 3.39981 19435 ft 329 kts 301°
2026-05-07 23:01 48.69380 3.37071 19039 ft 328 kts 300°
2026-05-07 23:01 48.70607 3.34180 18648 ft 326 kts 300°
2026-05-07 23:01 48.71828 3.31302 18272 ft 324 kts 300°
2026-05-07 23:02 48.73043 3.28439 17846 ft 322 kts 300°
2026-05-07 23:02 48.74251 3.25593 17429 ft 320 kts 300°
2026-05-07 23:02 48.75453 3.22756 17021 ft 319 kts 300°
2026-05-07 23:02 48.76647 3.19937 16625 ft 317 kts 300°
2026-05-07 23:03 48.77835 3.17132 16241 ft 316 kts 301°
2026-05-07 23:03 48.79015 3.14342 15864 ft 314 kts 300°
2026-05-07 23:03 48.80190 3.11557 15493 ft 312 kts 300°
2026-05-07 23:03 48.81354 3.08787 15118 ft 311 kts 300°
2026-05-07 23:04 48.82515 3.06027 14760 ft 310 kts 300°
2026-05-07 23:04 48.83673 3.03274 14375 ft 310 kts 300°
2026-05-07 23:04 48.84934 3.00617 14014 ft 310 kts 309°
2026-05-07 23:04 48.86373 2.98239 13637 ft 310 kts 310°
2026-05-07 23:05 48.87826 2.95838 13249 ft 308 kts 310°
2026-05-07 23:05 48.89267 2.93441 12872 ft 306 kts 310°
2026-05-07 23:05 48.90698 2.91053 12501 ft 305 kts 310°
2026-05-07 23:05 48.92089 2.88635 12140 ft 301 kts 303°
2026-05-07 23:06 48.93064 2.85906 11924 ft 290 kts 288°
2026-05-07 23:06 48.93517 2.82956 11615 ft 284 kts 273°
2026-05-07 23:06 48.93469 2.79970 11260 ft 282 kts 264°
2026-05-07 23:06 48.93309 2.77009 10904 ft 280 kts 264°
2026-05-07 23:07 48.93154 2.74057 10559 ft 279 kts 264°
2026-05-07 23:07 48.93000 2.71127 10213 ft 277 kts 264°
2026-05-07 23:07 48.92847 2.68219 9848 ft 276 kts 264°
2026-05-07 23:07 48.92692 2.65315 9453 ft 274 kts 264°
2026-05-07 23:08 48.92535 2.62437 9052 ft 273 kts 264°
2026-05-07 23:08 48.92379 2.59558 8643 ft 273 kts 265°
2026-05-07 23:08 48.92225 2.56691 8235 ft 272 kts 265°
2026-05-07 23:08 48.92071 2.53832 7820 ft 271 kts 265°
2026-05-07 23:09 48.91912 2.51011 7410 ft 270 kts 265°
2026-05-07 23:09 48.91741 2.48130 6995 ft 270 kts 265°
2026-05-07 23:09 48.91564 2.45295 6585 ft 269 kts 265°
2026-05-07 23:09 48.91378 2.42463 6157 ft 269 kts 265°
2026-05-07 23:10 48.91193 2.39644 5734 ft 267 kts 265°
2026-05-07 23:10 48.91012 2.36840 5312 ft 266 kts 265°
2026-05-07 23:10 48.90833 2.34043 4893 ft 265 kts 265°
2026-05-07 23:10 48.90664 2.31265 4595 ft 259 kts 265°
2026-05-07 23:11 48.90508 2.28594 4453 ft 247 kts 265°
2026-05-07 23:11 48.90394 2.26061 4325 ft 235 kts 274°
2026-05-07 23:11 48.90883 2.23796 4121 ft 225 kts 307°
2026-05-07 23:11 48.92094 2.22369 4022 ft 223 kts 342°
2026-05-07 23:12 48.93115 2.22082 4016 ft 222 kts 357°
2026-05-07 23:12 48.94656 2.22081 4011 ft 223 kts
2026-05-07 23:12 48.96106 2.22845 4010 ft 222 kts 34°
2026-05-07 23:12 48.97177 2.24503 4011 ft 221 kts 60°
2026-05-07 23:13 48.97649 2.26708 4010 ft 221 kts 84°
2026-05-07 23:13 48.97779 2.29052 3902 ft 222 kts 85°
2026-05-07 23:13 48.97902 2.31305 3650 ft 219 kts 85°
2026-05-07 23:13 48.98030 2.33609 3370 ft 217 kts 85°
2026-05-07 23:14 48.98158 2.35895 3080 ft 216 kts 85°
2026-05-07 23:14 48.98285 2.38190 2792 ft 215 kts 85°
2026-05-07 23:14 48.98408 2.40392 2494 ft 205 kts 85°
2026-05-07 23:14 48.98524 2.42506 2227 ft 197 kts 86°
2026-05-07 23:15 48.98638 2.44564 1957 ft 192 kts 86°
2026-05-07 23:15 48.98748 2.46570 1700 ft 189 kts 86°
2026-05-07 23:15 48.98856 2.48547 1469 ft 182 kts 86°
2026-05-07 23:15 48.98957 2.50392 1213 ft 167 kts 86°
2026-05-07 23:16 48.99046 2.52031 982 ft 150 kts 85°
2026-05-07 23:16 48.99128 2.53563 758 ft 139 kts 85°
2026-05-07 23:16 48.99207 2.54986 575 ft 135 kts 85°
2026-05-07 23:16 48.99282 2.56397 424 ft 133 kts 85°
2026-05-07 23:17 48.99356 2.57752 354 ft 114 kts 85°
2026-05-07 23:17 48.99406 2.58679 352 ft 63 kts 85°
2026-05-07 23:17 48.99438 2.59122 351 ft 30 kts 75°
2026-05-07 23:17 48.99510 2.59395 359 ft 27 kts 65°
2026-05-07 23:18 48.99577 2.59612 359 ft 15 kts 64°
2026-05-07 23:18 48.99667 2.59688 357 ft 17 kts 358°
2026-05-07 23:18 48.99794 2.59675 356 ft 20 kts 355°
2026-05-07 23:18 48.99935 2.59657 358 ft 21 kts 355°
2026-05-07 23:19 49.00053 2.59634 356 ft 15 kts 334°
2026-05-07 23:19 49.00074 2.59498 357 ft 13 kts 265°
2026-05-07 23:19 49.00066 2.59354 354 ft 15 kts 265°
2026-05-07 23:19 49.00054 2.59131 354 ft 26 kts 265°
2026-05-07 23:20 49.00040 2.58859 354 ft 26 kts 265°
2026-05-07 23:20 49.00027 2.58601 354 ft 24 kts 265°
2026-05-07 23:20 49.00016 2.58411 358 ft 14 kts 268°
2026-05-07 23:20 49.00067 2.58318 354 ft 12 kts 354°
2026-05-07 23:21 49.00147 2.58311 354 ft 11 kts 355°
2026-05-07 23:21 49.00219 2.58302 354 ft 9 kts 355°
2026-05-07 23:21 49.00248 2.58338 357 ft 5 kts 73°
2026-05-07 23:21 49.00251 2.58384 354 ft 4 kts 86°
2026-05-07 23:22 49.00252 2.58409 354 ft 0 kts 86°